DL1GHN-6 Weather Reports


time (UTC)temp
F
wind
direction
speed
knots
gust
knots
rain 1hr
in
rain 24hr
in
rain mn
in
humidity
%
barometer
mb
20260507131208 57 335 1.7 2.6 0.00 0.56 0.22 80 1015.8
20260507130710 58 267 0.9 2.6 0.00 0.56 0.22 79 1015.7
20260507130210 58 144 1.7 6.1 0.00 0.56 0.22 78 1015.7
20260507125709 58 128 1.7 5.2 0.00 0.58 0.22 76 1015.7
20260507125210 58 327 0.9 5.2 0.00 0.58 0.22 75 1015.6
20260507124709 59 329 0.9 4.3 0.00 0.58 0.22 75 1015.6
20260507124210 59 350 0.0 3.5 0.00 0.58 0.22 73 1015.6
20260507123710 60 343 1.7 3.5 0.00 0.58 0.22 72 1015.6
20260507123210 60 209 0.9 3.5 0.00 0.58 0.22 72 1015.5
20260507122710 59 313 0.9 3.5 0.00 0.58 0.22 70 1015.4
20260507122209 59 209 1.7 4.3 0.00 0.58 0.22 71 1015.4
20260507121709 59 267 2.6 5.2 0.00 0.58 0.22 71 1015.4
20260507121210 59 227 0.0 3.5 0.00 0.58 0.22 71 1015.4
20260507120710 59 263 1.7 4.3 0.00 0.58 0.22 69 1015.3
20260507120208 59 244 3.5 4.3 0.00 0.58 0.22 68 1015.3
20260507115709 59 219 0.0 2.6 0.00 0.59 0.22 69 1015.3
20260507115208 59 130 1.7 2.6 0.00 0.59 0.22 68 1015.3
20260507114708 59 182 0.9 2.6 0.00 0.59 0.22 69 1015.2
20260507114210 59 189 0.9 3.5 0.00 0.59 0.22 71 1015.3
20260507113708 60 186 1.7 4.3 0.00 0.59 0.22 68 1015.3
20260507113209 60 254 2.6 5.2 0.00 0.59 0.22 67 1015.3
20260507112709 60 244 2.6 5.2 0.00 0.59 0.22 67 1015.2
20260507112209 60 267 2.6 4.3 0.00 0.59 0.22 69 1015.2
20260507111709 60 201 1.7 5.2 0.00 0.59 0.22 68 1015.2
20260507111210 60 246 0.9 3.5 0.00 0.59 0.22 72 1015.2
20260507110709 59 272 1.7 6.1 0.01 0.59 0.22 72 1015.2
20260507110210 59 170 2.6 4.3 0.01 0.59 0.22 75 1015.3
20260507105710 58 192 0.9 6.1 0.01 0.59 0.22 73 1015.3
20260507105210 58 104 1.7 4.3 0.01 0.59 0.22 74 1015.3
20260507104710 58 211 2.6 5.2 0.01 0.59 0.22 75 1015.4
20260507104210 58 153 1.7 4.3 0.01 0.59 0.22 73 1015.4
20260507103710 58 148 3.5 5.2 0.01 0.59 0.22 72 1015.4
20260507103210 57 179 3.5 4.3 0.01 0.59 0.22 73 1015.4
20260507102710 57 286 2.6 6.1 0.01 0.59 0.22 77 1015.4
20260507102210 57 190 3.5 4.3 0.01 0.59 0.22 74 1015.4
20260507101709 57 139 0.9 3.5 0.01 0.59 0.22 75 1015.4
20260507101209 57 263 2.6 5.2 0.01 0.59 0.22 76 1015.4
20260507100709 57 156 0.9 3.5 0.00 0.58 0.21 77 1015.4
20260507100208 57 180 3.5 4.3 0.00 0.58 0.21 76 1015.4
20260507095709 57 265 1.7 4.3 0.00 0.58 0.21 80 1015.4
20260507095209 57 200 1.7 3.5 0.00 0.58 0.21 78 1015.4
20260507094709 56 143 0.9 4.3 0.00 0.58 0.21 78 1015.4
20260507094209 56 232 2.6 5.2 0.00 0.58 0.21 79 1015.3
20260507093708 56 132 1.7 5.2 0.00 0.58 0.21 81 1015.4
20260507093210 56 180 1.7 4.3 0.00 0.58 0.21 79 1015.3
20260507092709 56 262 2.6 5.2 0.00 0.58 0.21 81 1015.2
20260507092209 55 227 2.6 6.1 0.00 0.58 0.21 82 1015.3
20260507091710 55 215 0.9 4.3 0.00 0.58 0.21 85 1015.2
20260507091210 54 201 3.5 4.3 0.00 0.58 0.21 85 1015.2
20260507090710 54 172 1.7 5.2 0.00 0.58 0.21 86 1015.2
20260507090210 54 186 2.6 7.0 0.00 0.58 0.21 86 1015.1
20260507085709 54 273 2.6 5.2 0.00 0.58 0.21 87 1015.0
20260507085210 54 223 2.6 4.3 0.00 0.58 0.21 87 1015.1
20260507084709 54 232 2.6 5.2 0.00 0.58 0.21 87 1015.0
20260507084210 54 239 2.6 4.3 0.00 0.58 0.21 88 1015.0
20260507083710 54 243 1.7 6.1 0.00 0.58 0.21 89 1015.0
20260507083209 53 212 1.7 3.5 0.00 0.58 0.21 88 1015.0
20260507082709 54 237 3.5 5.2 0.00 0.58 0.21 89 1015.0
20260507082210 53 225 2.6 6.1 0.00 0.58 0.21 89 1014.9
20260507081708 53 181 1.7 3.5 0.00 0.58 0.21 90 1014.9
20260507081210 53 173 1.7 2.6 0.00 0.58 0.21 90 1014.9
20260507080709 53 235 1.7 5.2 0.00 0.58 0.21 90 1014.8
20260507080209 53 231 1.7 3.5 0.00 0.58 0.21 90 1014.8
20260507075709 53 227 2.6 5.2 0.00 0.58 0.21 91 1014.8
20260507075209 52 213 1.7 5.2 0.00 0.58 0.21 90 1014.7
20260507074709 52 228 1.7 4.3 0.00 0.58 0.21 91 1014.7
20260507074208 52 239 2.6 5.2 0.00 0.58 0.21 91 1014.6
20260507073709 52 232 0.9 3.5 0.00 0.58 0.21 91 1014.5
20260507073210 52 223 2.6 3.5 0.00 0.58 0.21 91 1014.5
20260507072708 52 162 2.6 5.2 0.00 0.58 0.21 91 1014.5
20260507072210 52 252 2.6 5.2 0.00 0.58 0.21 91 1014.4
20260507071710 52 186 1.7 4.3 0.00 0.58 0.21 92 1014.4
20260507071209 52 223 2.6 4.3 0.00 0.58 0.21 92 1014.4
20260507070710 52 159 1.7 5.2 0.00 0.58 0.21 91 1014.4
20260507070209 52 142 3.5 6.1 0.00 0.58 0.21 91 1014.3
20260507065710 52 196 2.6 4.3 0.00 0.58 0.21 92 1014.3
20260507065210 52 261 2.6 4.3 0.00 0.58 0.21 92 1014.2
20260507064710 51 229 0.9 2.6 0.01 0.58 0.21 92 1014.2
20260507064210 51 174 1.7 3.5 0.01 0.58 0.21 92 1014.2
20260507063709 51 206 1.7 3.5 0.01 0.58 0.21 92 1014.1
20260507063208 51 192 1.7 2.6 0.01 0.58 0.21 92 1014.1
20260507062710 51 213 0.0 2.6 0.01 0.58 0.21 92 1014.1
20260507062209 51 188 1.7 2.6 0.02 0.58 0.21 92 1014.1
20260507061708 51 167 1.7 3.5 0.02 0.58 0.21 92 1014.1
20260507061209 51 189 0.9 2.6 0.02 0.58 0.21 92 1014.1
20260507060708 51 211 0.9 3.5 0.02 0.58 0.21 92 1014.0
20260507060208 51 144 1.7 4.3 0.02 0.58 0.21 92 1013.9
20260507055709 51 186 1.7 3.5 0.02 0.58 0.21 92 1013.9
20260507055208 51 169 0.9 2.6 0.02 0.58 0.21 92 1013.9
20260507054710 51 184 0.9 3.5 0.02 0.57 0.20 92 1013.9
20260507054209 51 178 0.9 2.6 0.02 0.57 0.20 92 1013.8
20260507053709 51 170 0.9 1.7 0.02 0.57 0.20 92 1013.8
20260507053210 51 170 1.7 3.5 0.02 0.57 0.20 92 1013.7
20260507052710 51 163 0.9 2.6 0.02 0.57 0.20 92 1013.7
20260507052210 51 188 0.0 2.6 0.01 0.57 0.20 92 1013.6
20260507051710 51 183 1.7 3.5 0.01 0.57 0.20 92 1013.5
20260507051210 51 241 0.9 2.6 0.00 0.56 0.19 92 1013.4
20260507050710 51 178 0.0 3.5 0.00 0.56 0.19 92 1013.4
20260507050210 51 194 1.7 2.6 0.01 0.56 0.19 92 1013.3
20260507045709 51 218 0.9 1.7 0.01 0.56 0.19 92 1013.3
20260507045210 51 190 0.0 1.7 0.02 0.56 0.19 92 1013.3
20260507044710 50 209 0.9 3.5 0.02 0.56 0.19 92 1013.2
20260507044209 50 184 1.7 4.3 0.02 0.56 0.19 92 1013.2
20260507043710 50 172 2.6 4.3 0.02 0.56 0.19 92 1013.1
20260507043208 50 187 3.5 4.3 0.02 0.56 0.19 92 1013.1
20260507042710 50 185 1.7 4.3 0.02 0.56 0.19 92 1013.0
20260507042208 50 163 1.7 4.3 0.02 0.56 0.19 92 1013.0
20260507041709 50 183 1.7 3.5 0.03 0.56 0.19 92 1012.9
20260507041209 50 175 1.7 3.5 0.03 0.56 0.19 92 1012.9
20260507040708 50 205 1.7 4.3 0.03 0.56 0.19 92 1012.9
20260507040208 50 185 1.7 4.3 0.03 0.55 0.18 92 1012.8
20260507035709 50 167 2.6 3.5 0.03 0.55 0.18 91 1012.8
20260507035208 50 182 1.7 4.3 0.02 0.54 0.17 92 1012.8
20260507034708 50 189 0.9 2.6 0.03 0.54 0.17 91 1012.8
20260507034209 50 180 0.9 3.5 0.03 0.54 0.17 91 1012.8
20260507033709 50 146 0.9 0.9 0.03 0.54 0.17 91 1012.7
20260507033208 50 217 0.9 2.6 0.02 0.54 0.17 91 1012.7
20260507032708 50 166 0.9 3.5 0.02 0.54 0.17 91 1012.6
20260507032208 50 169 1.7 3.5 0.03 0.54 0.17 91 1012.6
20260507031445 50 170 1.7 4.3 0.02 0.53 0.16 91 1012.5
20260507030944 50 219 3.5 4.3 0.03 0.53 0.16 91 1012.4
20260507030444 50 165 0.9 1.7 0.02 0.52 0.15 91 1012.4
20260507025944 50 154 1.7 3.5 0.02 0.52 0.15 91 1012.4
20260507025444 50 194 0.0 2.6 0.02 0.52 0.15 91 1012.4
20260507024944 50 180 1.7 3.5 0.02 0.51 0.14 91 1012.3
20260507024444 50 166 1.7 2.6 0.02 0.51 0.14 91 1012.3
20260507023944 50 148 0.9 1.7 0.02 0.51 0.14 91 1012.3
20260507023445 50 128 0.9 2.6 0.03 0.51 0.14 91 1012.2
20260507022945 50 188 0.9 2.6 0.03 0.51 0.14 91 1012.3
20260507022444 50 175 0.9 2.6 0.02 0.50 0.13 91 1012.2
20260507021945 50 193 0.9 2.6 0.02 0.50 0.13 91 1012.2
20260507021444 50 162 0.9 1.7 0.03 0.50 0.13 91 1012.1
20260507020945 50 140 1.7 2.6 0.03 0.50 0.13 91 1012.1
20260507020445 50 136 1.7 1.7 0.03 0.50 0.13 91 1012.0
20260507015943 50 189 0.0 0.9 0.03 0.50 0.13 91 1012.0
20260507015445 50 189 0.0 0.9 0.04 0.50 0.13 91 1012.0
20260507014945 50 189 0.0 3.5 0.04 0.50 0.13 91 1011.9
20260507014443 50 144 0.9 2.6 0.04 0.49 0.12 91 1011.8
20260507013944 50 171 0.9 1.7 0.04 0.49 0.12 91 1011.8
20260507013444 50 193 0.9 5.2 0.03 0.48 0.11 91 1011.8
20260507012945 50 238 1.7 4.3 0.03 0.48 0.11 91 1011.8
20260507012445 50 187 2.6 5.2 0.04 0.48 0.11 91 1011.8
20260507011945 50 213 1.7 4.3 0.04 0.48 0.11 91 1011.8
20260507011445 50 231 2.6 4.3 0.04 0.47 0.10 91 1011.8
20260507010944 50 236 2.6 5.2 0.03 0.46 0.09 91 1011.7
20260507010444 50 239 3.5 6.1 0.03 0.46 0.09 90 1011.7
20260507005945 50 263 2.6 3.5 0.04 0.46 0.09 90 1011.5
20260507005444 50 211 4.3 8.7 0.03 0.46 0.09 90 1011.6
20260507004944 50 257 4.3 9.6 0.04 0.46 0.09 90 1011.4
20260507004443 50 203 1.7 4.3 0.03 0.45 0.08 90 1011.3
20260507003945 50 281 4.3 8.7 0.03 0.45 0.08 90 1011.2
20260507003444 50 185 5.2 10.4 0.03 0.45 0.08 90 1011.2
20260507002944 50 203 3.5 9.6 0.03 0.45 0.08 90 1011.2
20260507002444 50 157 5.2 13.0 0.03 0.44 0.07 90 1011.2
20260507001943 51 167 7.0 13.0 0.03 0.44 0.07 90 1011.2
20260507001443 51 231 4.3 8.7 0.02 0.43 0.06 90 1011.1
20260507000943 51 198 6.1 11.3 0.03 0.43 0.06 90 1011.1
20260507000444 51 175 6.1 9.6 0.03 0.43 0.06 90 1011.0
20260506235945 51 216 6.1 10.4 0.02 0.43 0.06 90 1011.1
20260506235444 51 170 6.1 12.2 0.03 0.43 0.06 90 1011.1
20260506234944 51 130 7.8 13.9 0.02 0.42 0.05 90 1011.1
20260506234445 51 200 3.5 11.3 0.02 0.42 0.05 90 1011.1
20260506233943 51 173 6.1 13.0 0.03 0.42 0.05 90 1011.1
20260506233445 51 190 4.3 7.0 0.03 0.42 0.05 90 1011.1
20260506232945 51 140 6.1 9.6 0.03 0.42 0.05 90 1011.1
20260506232445 51 177 4.3 10.4 0.02 0.41 0.04 90 1011.1
20260506231945 51 163 5.2 8.7 0.03 0.41 0.04 90 1011.1
20260506231445 51 163 2.6 7.0 0.03 0.41 0.04 90 1011.0
20260506230945 51 188 3.5 8.7 0.02 0.40 0.03 90 1011.0
20260506230444 51 175 7.0 10.4 0.02 0.40 0.03 90 1011.0
20260506225944 51 148 3.5 9.6 0.03 0.40 0.03 90 1011.0
20260506225445 51 139 2.6 8.7 0.03 0.39 0.02 90 1011.0
20260506224945 51 211 4.3 8.7 0.03 0.39 0.02 90 1010.9
20260506224444 51 198 5.2 13.0 0.04 0.39 0.02 90 1011.0
20260506223945 51 129 2.6 7.0 0.03 0.39 0.02 90 1010.9
20260506223445 51 173 4.3 9.6 0.04 0.39 0.02 90 1010.9
20260506222945 51 189 3.5 7.8 0.04 0.39 0.02 90 1010.9
20260506222445 51 186 5.2 7.8 0.05 0.39 0.02 90 1010.9
20260506221944 51 146 4.3 7.0 0.05 0.38 0.01 90 1010.8
20260506221443 51 150 6.1 9.6 0.05 0.38 0.01 90 1010.8
20260506220945 51 175 6.1 11.3 0.05 0.38 0.01 90 1010.7
20260506220443 51 136 3.5 10.4 0.06 0.38 0.01 90 1010.8
20260506215944 51 132 2.6 7.8 0.05 0.37 0.37 90 1010.8
20260506215445 51 169 5.2 8.7 0.05 0.36 0.36 90 1010.7
20260506214944 51 182 3.5 10.4 0.05 0.36 0.36 90 1010.7
20260506214443 51 168 5.2 9.6 0.05 0.35 0.35 90 1010.8
20260506213943 52 180 4.3 7.8 0.06 0.35 0.35 90 1010.7
20260506213443 52 192 3.5 8.7 0.05 0.35 0.35 90 1010.7
20260506212945 52 161 5.2 9.6 0.06 0.35 0.35 90 1010.7
20260506212443 52 153 3.5 7.8 0.05 0.34 0.34 90 1010.6
20260506211943 52 171 3.5 7.0 0.05 0.33 0.33 90 1010.6
20260506211445 52 220 3.5 7.8 0.06 0.33 0.33 90 1010.6
20260506210944 52 162 2.6 5.2 0.06 0.33 0.33 90 1010.7
20260506210445 52 188 3.5 8.7 0.06 0.32 0.32 90 1010.6
20260506205944 52 197 4.3 7.0 0.06 0.32 0.32 90 1010.6
20260506205445 52 171 2.6 8.7 0.06 0.31 0.31 90 1010.6
20260506204945 52 173 3.5 8.7 0.06 0.31 0.31 90 1010.6
20260506204445 52 180 3.5 7.8 0.06 0.31 0.31 90 1010.5
20260506203945 52 196 5.2 9.6 0.06 0.30 0.30 90 1010.6
20260506203444 52 190 3.5 8.7 0.07 0.30 0.30 90 1010.5
20260506202944 52 169 2.6 6.1 0.06 0.29 0.29 90 1010.5
20260506202445 52 192 5.2 8.7 0.07 0.29 0.29 90 1010.5
20260506201945 52 148 3.5 7.8 0.07 0.28 0.28 90 1010.5
20260506201443 52 132 5.2 10.4 0.07 0.28 0.28 90 1010.5
20260506200944 52 182 4.3 7.0 0.07 0.27 0.27 90 1010.4
20260506200443 52 207 4.3 9.6 0.08 0.27 0.27 90 1010.4
20260506195943 52 161 3.5 7.8 0.08 0.26 0.26 90 1010.4
20260506195443 52 194 5.2 9.6 0.08 0.25 0.25 90 1010.3
20260506194945 52 209 5.2 9.6 0.09 0.25 0.25 90 1010.3
20260506194444 52 184 5.2 9.6 0.09 0.24 0.24 90 1010.2
20260506193943 52 170 4.3 9.6 0.09 0.24 0.24 90 1010.1
20260506193443 52 169 3.5 7.8 0.09 0.23 0.23 90 1010.1
20260506192944 52 151 4.3 11.3 0.09 0.23 0.23 90 1010.0
20260506192444 52 107 6.1 8.7 0.09 0.22 0.22 90 1010.0
20260506191944 52 234 6.1 11.3 0.09 0.21 0.21 89 1009.9
20260506191444 53 162 3.5 7.0 0.09 0.20 0.20 89 1009.9
20260506190944 53 192 1.7 8.7 0.09 0.20 0.20 89 1009.8
20260506190445 53 214 4.3 7.0 0.08 0.19 0.19 89 1009.7
20260506185945 53 234 1.7 5.2 0.07 0.18 0.18 89 1009.7
20260506185444 53 98 2.6 9.6 0.07 0.17 0.17 89 1009.5
20260506184944 53 139 5.2 10.4 0.06 0.17 0.17 89 1009.4
20260506184445 53 200 7.0 11.3 0.06 0.16 0.16 89 1009.3
20260506183945 53 176 5.2 10.4 0.06 0.15 0.15 89 1009.2
20260506183445 53 176 4.3 7.0 0.05 0.14 0.14 89 1009.1
20260506182945 53 180 7.0 11.3 0.05 0.14 0.14 89 1009.0
20260506182444 53 224 4.3 11.3 0.04 0.13 0.13 89 1008.9
20260506181945 53 178 4.3 11.3 0.04 0.13 0.13 88 1008.9
20260506181444 53 169 3.5 9.6 0.04 0.12 0.12 88 1008.9
20260506180944 53 167 6.1 13.9 0.03 0.11 0.11 88 1008.8
20260506180444 53 217 5.2 11.3 0.03 0.11 0.11 88 1008.7
20260506175943 53 167 4.3 12.2 0.04 0.11 0.11 88 1008.6
20260506175443 53 128 5.2 8.7 0.03 0.10 0.10 88 1008.6
20260506174943 53 146 5.2 11.3 0.04 0.10 0.10 88 1008.6
20260506174443 53 180 4.3 10.4 0.03 0.09 0.09 88 1008.5
20260506173944 53 141 4.3 8.7 0.03 0.09 0.09 87 1008.4
20260506173443 53 178 6.1 11.3 0.03 0.09 0.09 87 1008.4
20260506172945 53 186 2.6 8.7 0.04 0.09 0.09 88 1008.4
20260506172444 53 190 2.6 8.7 0.03 0.09 0.09 87 1008.3
20260506171945 53 170 5.2 8.7 0.03 0.09 0.09 87 1008.3
20260506171444 54 113 5.2 10.4 0.02 0.08 0.08 87 1008.2
20260506170945 54 186 6.1 7.8 0.02 0.08 0.08 87 1008.2
20260506170445 54 187 6.1 12.2 0.02 0.08 0.08 86 1008.3
20260506165945 54 167 4.3 7.8 0.02 0.07 0.07 87 1008.3
20260506165445 54 178 4.3 7.0 0.02 0.07 0.07 86 1008.2
20260506164944 54 174 4.3 8.7 0.01 0.06 0.06 86 1008.3
20260506164444 54 197 4.3 10.4 0.01 0.06 0.06 86 1008.2
20260506163944 54 166 4.3 7.8 0.01 0.06 0.06 86 1008.3
20260506163443 54 190 3.5 8.7 0.01 0.06 0.06 86 1008.2
20260506162944 54 166 5.2 9.6 0.00 0.06 0.06 86 1008.2
20260506162444 54 146 4.3 9.6 0.00 0.06 0.06 86 1008.2
20260506161943 54 180 5.2 8.7 0.00 0.06 0.06 86 1008.1
20260506161443 54 176 3.5 9.6 0.01 0.06 0.06 86 1008.2
20260506160944 55 167 1.7 8.7 0.01 0.06 0.06 86 1008.2
20260506160443 55 150 6.1 9.6 0.01 0.06 0.06 86 1008.2
20260506155944 55 144 4.3 9.6 0.01 0.06 0.06 86 1008.2
20260506155443 55 194 4.3 7.8 0.01 0.06 0.06 86 1008.2
20260506154945 55 193 4.3 7.8 0.01 0.06 0.06 86 1008.1
20260506154445 55 198 5.2 7.8 0.02 0.06 0.06 86 1008.1
20260506153945 55 207 4.3 11.3 0.02 0.06 0.06 86 1008.1
20260506153444 55 196 5.2 8.7 0.02 0.06 0.06 86 1008.1
20260506152944 55 68 4.3 9.6 0.02 0.06 0.06 86 1008.1
20260506152445 55 185 7.8 13.0 0.02 0.06 0.06 86 1008.1
20260506151945 55 115 3.5 11.3 0.02 0.06 0.06 87 1008.0
20260506151444 55 211 5.2 8.7 0.02 0.06 0.05 87 1008.0
20260506150945 55 210 4.3 8.7 0.02 0.06 0.05 87 1008.0
20260506150443 55 205 4.3 8.7 0.02 0.06 0.05 87 1008.0
20260506145943 55 208 3.5 7.8 0.02 0.27 0.05 87 1008.0
20260506145444 55 211 4.3 7.8 0.02 0.27 0.05 86 1007.9
20260506144943 55 189 4.3 9.6 0.02 0.27 0.05 86 1007.9
20260506144444 56 212 4.3 7.8 0.01 0.26 0.04 85 1007.9
20260506143943 56 177 5.2 10.4 0.01 0.26 0.04 84 1007.9
20260506143443 56 170 3.5 8.7 0.01 0.26 0.04 83 1007.9
20260506142945 56 191 3.5 9.6 0.01 0.26 0.04 82 1007.8
20260506142443 56 176 3.5 6.1 0.01 0.26 0.04 82 1007.7
20260506141944 57 173 3.5 8.7 0.01 0.26 0.04 81 1007.6
20260506141444 57 227 3.5 10.4 0.00 0.25 0.03 80 1007.6
20260506140945 58 229 5.2 10.4 0.01 0.25 0.03 80 1007.4
20260506140445 58 217 5.2 10.4 0.02 0.25 0.03 79 1007.2
20260506135944 58 205 5.2 13.9 0.02 0.25 0.03 79 1007.1
20260506135444 58 142 5.2 10.4 0.02 0.25 0.03 79 1007.0
20260506134944 58 165 4.3 8.7 0.03 0.25 0.03 82 1007.0
20260506134443 58 183 1.7 6.1 0.03 0.25 0.03 84 1007.0
20260506133944 58 208 3.5 6.1 0.03 0.25 0.03 84 1007.0
20260506133444 58 190 3.5 6.1 0.03 0.25 0.03 84 1007.0
20260506132944 58 227 2.6 10.4 0.03 0.25 0.03 83 1007.0
20260506132445 58 194 4.3 7.0 0.03 0.25 0.03 83 1006.9
20260506131945 58 194 4.3 9.6 0.03 0.25 0.03 83 1006.8